[[{"header":{"parameterUnit":"m.s-1","parameterCategory":1,"la1":30.2991,"la2":30.254,"lo1":-89.0895,"lo2":-89.0444,"dy":0.0017,"dx":0.0017,"nx":28,"ny":28,"refTime":"2024-04-28T21:00:00:Z","depth":0,"parameterNumber":2,"parameterNumberName":"U-component_of_WINDS"},"data":[0,0,0,0,0,0,0,0,0,0,0,0,0,0,0,0,0,0,0,0,0,0,0,0,0,0,0,0,0,0,0,0,0,0,0,0,0,0,0,0,0,0,0,0,0,0,0,0,0,0,0,0,0,0,0,0,0,0,0.0317,0.0317,0,0.0336,0.0336,0.0336,0.0351,0.0351,0.0351,0.0351,0.0371,0.0371,0.0371,0,0,0,0,0,0,0,0,0,0,0,0,0,0.0294,0.0294,0.0317,0.0317,0.0317,0.0336,0.0336,0.0336,0.0351,0.0351,0.0351,0.0352,0.037,0.0371,0.0371,0,0,0,0,0,0,0,0,0,0,0,0,0,0.0307,0.0294,0.0317,0.0327,0.0328,0.0336,0.0336,0.0336,0.0351,0.0351,0.0351,0.0352,0.037,0.0371,0.0371,0.0371,0,0,0.0373,0.0373,0,0,0,0,0,0,0,0,0.0306,0.0308,0.0325,0.0326,0.0327,0.0341,0.0335,0.0348,0.0351,0.0342,0.0351,0.0352,0.0361,0.0362,0.0365,0.0372,0.0372,0.0373,0.0374,0.0374,0.0374,0,0,0,0,0,0,0,0.0305,0.0307,0.0324,0.0325,0.0327,0.0331,0.0333,0.0338,0.035,0.0343,0.0344,0.0346,0.0361,0.0365,0.0366,0.0373,0.0373,0.0374,0.0374,0.0374,0.0381,0.0381,0,0,0,0,0,0,0.0303,0.0306,0.0324,0.0325,0.0317,0.0331,0.0333,0.0337,0.035,0.0352,0.0346,0.0347,0.0363,0.0365,0.0366,0.0367,0.0374,0.0374,0.0375,0.0381,0.0381,0.0381,0,0,0,0,0,0,0.0302,0.0304,0.0323,0.0316,0.0319,0.0331,0.0335,0.0337,0.034,0.0352,0.0355,0.0347,0.0364,0.0366,0.037,0.0368,0.0375,0.0375,0.0381,0.0381,0.0381,0.0368,0,0,0,0,0,0,0.0302,0.0304,0.0304,0.0316,0.0319,0.0326,0.0335,0.0337,0.0341,0.0342,0.0354,0.0356,0.0364,0.0369,0.037,0.0369,0.0376,0.0382,0.0381,0.0381,0.0369,0.0368,0.0367,0,0,0,0,0,0.0301,0.0299,0.0303,0.0305,0.0319,0.0326,0.0327,0.0337,0.0341,0.0341,0.0349,0.0356,0.0368,0.0369,0.0371,0.037,0.0382,0.0381,0.0381,0.0369,0.0368,0.0367,0,0,0,0,0,0,0.0285,0.0301,0.0306,0.0308,0.0316,0.0328,0.0328,0.0335,0.0341,0.0342,0.0354,0.0356,0.0359,0.0365,0.0366,0.0371,0.0376,0.0376,0.0366,0.0365,0.0364,0.0362,0.0376,0,0,0,0,0,0.0282,0.0287,0.03,0.03,0.0304,0.0315,0.0319,0.0326,0.0334,0.0337,0.0345,0.0353,0.0359,0.0362,0.0368,0.037,0.0373,0.037,0.0369,0.0368,0.0368,0.037,0.0369,0.038,0.038,0.038,0,0,0.0276,0.0285,0.0287,0.0298,0.0304,0.0309,0.0318,0.0322,0.0326,0.0338,0.0342,0.0349,0.0358,0.0362,0.0363,0.0366,0.0366,0.0368,0.0367,0.0367,0.037,0.0369,0.0368,0.0379,0.038,0.038,0,0,0.0266,0.0273,0.0275,0.0282,0.0292,0.03,0.0301,0.0313,0.0318,0.0323,0.0332,0.0337,0.0346,0.0353,0.0358,0.0353,0.0359,0.0354,0.0348,0.035,0.0349,0.0349,0.0347,0.0347,0.0354,0.0354,0.0354,0,0.0257,0.0264,0.0275,0.0279,0.0284,0.0296,0.0298,0.0304,0.0315,0.0319,0.0322,0.0335,0.0342,0.0348,0.0347,0.035,0.0351,0.0353,0.0349,0.0348,0.0348,0.0346,0.0346,0.0353,0.0354,0.0354,0.0354,0,0.0252,0.0257,0.0257,0.0269,0.0274,0.0277,0.0289,0.0292,0.0299,0.0307,0.0313,0.0322,0.0331,0.0333,0.0339,0.0339,0.0341,0.0346,0.0352,0.0346,0.0345,0.0345,0.0352,0.0353,0.0353,0.0353,0,0,0.0232,0.0251,0.0251,0.0257,0.027,0.0274,0.0278,0.0287,0.029,0.0298,0.0302,0.0311,0.0316,0.0322,0.0329,0.0331,0.0328,0.0336,0.0337,0.0335,0.0329,0.0325,0.0324,0.0332,0.0332,0.0332,0.0329,0,0.0225,0.0232,0.0243,0.0247,0.0253,0.0265,0.0269,0.0277,0.0285,0.0291,0.03,0.0306,0.0312,0.0316,0.0318,0.0327,0.0327,0.0328,0.0336,0.0337,0.0333,0.0324,0.0319,0.0315,0.0328,0.0328,0.0328,0,0.0216,0.0225,0.0229,0.0243,0.0246,0.0249,0.0259,0.0264,0.0275,0.028,0.0287,0.0296,0.0301,0.0307,0.0315,0.0316,0.032,0.0325,0.0325,0.0326,0.0332,0.0325,0.0314,0.0314,0.0328,0.0328,0.0328,0,0.0201,0.0214,0.0219,0.0223,0.024,0.0242,0.0248,0.0259,0.0264,0.0273,0.0277,0.0286,0.0291,0.0298,0.0309,0.0312,0.0316,0.0322,0.0321,0.0321,0.0321,0.0321,0.0311,0.0324,0.0324,0.0324,0.0324,0,0.0192,0.0194,0.0212,0.0215,0.0219,0.0232,0.0235,0.0243,0.0253,0.0258,0.027,0.0274,0.0289,0.0295,0.0304,0.031,0.0312,0.0317,0.0319,0.0316,0.0315,0.0319,0.0319,0.0324,0.0324,0.0324,0.0324,0,0.0175,0.0187,0.0193,0.0209,0.0213,0.0215,0.0229,0.0232,0.0241,0.0248,0.025,0.0264,0.0273,0.0285,0.0297,0.0303,0.0308,0.0311,0.0304,0.0305,0.0304,0.0304,0.0296,0.0295,0.0308,0.0308,0.0308,0,0.0168,0.017,0.0186,0.0191,0.0198,0.0204,0.021,0.0224,0.0229,0.0242,0.0245,0.0254,0.0262,0.0275,0.0287,0.0297,0.0301,0.0297,0.0302,0.0299,0.0301,0.03,0.0301,0.0296,0.0296,0.0295,0.0295,0,0.0153,0.016,0.0167,0.0178,0.0185,0.0193,0.0202,0.0205,0.0221,0.0227,0.0236,0.0242,0.0255,0.0265,0.0276,0.0284,0.0292,0.0294,0.0294,0.029,0.0286,0.0289,0.0301,0.0294,0.0294,0.0294,0.0294,0.0294,0.0141,0.0144,0.0157,0.0165,0.0174,0.0183,0.0187,0.0198,0.0206,0.0217,0.0225,0.0234,0.0246,0.0263,0.027,0.0278,0.0281,0.0281,0.0281,0.0281,0.028,0.0285,0.028,0.028,0.028,0.028,0.028,0,0.0128,0.0137,0.0145,0.0158,0.0165,0.0173,0.0184,0.019,0.0197,0.0208,0.0216,0.0228,0.0237,0.0251,0.0261,0.0265,0.0269,0.0267,0.0267,0.0269,0.0276,0.0275,0.0264,0.0264,0.0264,0.0264,0.0264,0.0264,0.0121,0.0127,0.0136,0.0147,0.0156,0.0165,0.0171,0.0179,0.0188,0.02,0.0208,0.0217,0.0229,0.0242,0.0251,0.0255,0.0258,0.0255,0.026,0.0267,0.0268,0.027,0.0268,0.0256,0.0256,0.0252,0.0252,0.0252]},{"header":{"parameterUnit":"m.s-1","parameterCategory":1,"la1":30.2991,"la2":30.254,"lo1":-89.0895,"lo2":-89.0444,"dy":0.0017,"dx":0.0017,"nx":28,"ny":28,"refTime":"2024-04-28T21:00:00:Z","depth":0,"parameterNumber":3,"parameterNumberName":"V-component_of_WINDS"},"data":[0,0,0,0,0,0,0,0,0,0,0,0,0,0,0,0,0,0,0,0,0,0,0,0,0,0,0,0,0,0,0,0,0,0,0,0,0,0,0,0,0,0,0,0,0,0,0,0,0,0,0,0,0,0,0,0,0,0,4.2361,4.2361,0,4.2374,4.2374,4.2375,4.2407,4.2408,4.2408,4.2409,4.2417,4.2416,4.2416,0,0,0,0,0,0,0,0,0,0,0,0,0,4.2358,4.2358,4.2361,4.2361,4.2361,4.2374,4.2374,4.2375,4.2407,4.2408,4.2409,4.2409,4.2417,4.2416,4.2416,0,0,0,0,0,0,0,0,0,0,0,0,0,4.2364,4.2358,4.2361,4.2379,4.2381,4.2374,4.2375,4.2375,4.2407,4.2408,4.2409,4.241,4.2417,4.2416,4.2416,4.2391,0,0,4.2414,4.2413,0,0,0,0,0,0,0,0,4.2363,4.2364,4.2376,4.2378,4.238,4.239,4.2376,4.238,4.2407,4.2397,4.2409,4.241,4.2407,4.2407,4.2407,4.2391,4.2391,4.2414,4.2413,4.2413,4.2413,0,0,0,0,0,0,0,4.2363,4.2363,4.2366,4.2376,4.2378,4.2385,4.2387,4.2377,4.2395,4.2398,4.24,4.2402,4.2408,4.2408,4.2407,4.2392,4.2414,4.2413,4.2413,4.2412,4.2357,4.2356,0,0,0,0,0,0,4.2361,4.2363,4.2365,4.2366,4.2374,4.2384,4.2386,4.2386,4.2396,4.2398,4.2401,4.2403,4.2408,4.2408,4.2408,4.238,4.2413,4.2412,4.2412,4.2358,4.2357,4.2356,0,0,0,0,0,0,4.2361,4.2361,4.2365,4.2365,4.2366,4.2383,4.2382,4.2385,4.2385,4.2398,4.2401,4.2397,4.2409,4.2409,4.2396,4.2381,4.2412,4.2411,4.2359,4.2358,4.2356,4.2323,0,0,0,0,0,0,4.236,4.236,4.2352,4.2365,4.2366,4.2354,4.2381,4.2385,4.2385,4.2388,4.2396,4.2398,4.241,4.2396,4.2395,4.238,4.2411,4.2361,4.2359,4.2357,4.2326,4.2321,4.2317,0,0,0,0,0,4.236,4.234,4.2351,4.2351,4.2356,4.2353,4.2353,4.2369,4.2383,4.2375,4.2383,4.2398,4.2383,4.2395,4.2393,4.2378,4.2362,4.2359,4.2357,4.2328,4.2322,4.2317,0,0,0,0,0,0,4.2322,4.2342,4.2355,4.2339,4.2344,4.2358,4.2347,4.2362,4.2361,4.2364,4.2382,4.2384,4.2368,4.2372,4.2385,4.2355,4.2375,4.2372,4.2353,4.2347,4.2343,4.2342,4.241,0,0,0,0,0,4.2313,4.231,4.2327,4.2311,4.2314,4.233,4.2329,4.2341,4.2346,4.2348,4.2355,4.2358,4.2355,4.2351,4.2348,4.2327,4.2329,4.2316,4.2311,4.2308,4.2304,4.2294,4.2289,4.2348,4.2348,4.2348,0,0,4.2292,4.2302,4.2299,4.2304,4.2309,4.2305,4.2331,4.2325,4.2321,4.2346,4.2335,4.2341,4.2345,4.2328,4.2321,4.2331,4.2289,4.2304,4.2301,4.23,4.2291,4.2286,4.2281,4.2346,4.2346,4.2347,0,0,4.2251,4.2259,4.2248,4.2254,4.2263,4.2274,4.2271,4.2284,4.2289,4.2279,4.2298,4.2293,4.2286,4.2289,4.2289,4.2252,4.2266,4.2251,4.2226,4.2216,4.2211,4.2207,4.2194,4.2189,4.2248,4.2248,4.2248,0,4.2223,4.2219,4.2239,4.2233,4.2234,4.226,4.2248,4.2252,4.2258,4.2258,4.227,4.2263,4.2267,4.2252,4.2243,4.2243,4.2239,4.2249,4.2211,4.2207,4.2203,4.2191,4.2186,4.2246,4.2246,4.2246,4.2247,0,4.2184,4.2181,4.217,4.2179,4.218,4.217,4.2188,4.2186,4.2198,4.2208,4.2198,4.2205,4.2204,4.2201,4.2212,4.2188,4.2194,4.2208,4.2227,4.2195,4.2184,4.218,4.2243,4.2244,4.2245,4.2245,0,0,4.2118,4.2141,4.2136,4.2141,4.2154,4.2151,4.2143,4.2145,4.2143,4.2147,4.214,4.2134,4.2148,4.2149,4.2161,4.2152,4.2123,4.2167,4.2167,4.2158,4.2096,4.2085,4.2079,4.2132,4.2132,4.2131,4.2096,0,4.208,4.2069,4.2088,4.2072,4.2069,4.2095,4.2088,4.2094,4.2103,4.2101,4.2111,4.2107,4.2126,4.2126,4.2119,4.2128,4.211,4.2131,4.2124,4.2124,4.2122,4.2073,4.2062,4.2028,4.2091,4.2091,4.209,0,4.2034,4.2039,4.2023,4.2039,4.2039,4.2032,4.2036,4.2034,4.2042,4.205,4.2052,4.2067,4.2059,4.2079,4.2068,4.2081,4.208,4.2084,4.2083,4.2082,4.2105,4.2071,4.2017,4.2012,4.2083,4.2084,4.2084,0,4.1987,4.199,4.1982,4.1985,4.2003,4.1998,4.2005,4.2014,4.2015,4.2018,4.2018,4.2019,4.202,4.202,4.2035,4.2048,4.2021,4.2043,4.2026,4.2026,4.2019,4.2019,4.1964,4.2019,4.2019,4.2019,4.2019,0,4.1943,4.1932,4.1961,4.1956,4.1945,4.1967,4.1955,4.1964,4.1972,4.1968,4.1989,4.1985,4.2005,4.2002,4.2013,4.2003,4.2002,4.2007,4.201,4.2005,4.2005,4.2004,4.2007,4.2017,4.2018,4.2018,4.2018,0,4.1888,4.1908,4.19,4.1919,4.1924,4.1915,4.193,4.1925,4.1937,4.1932,4.1932,4.195,4.1948,4.1963,4.1963,4.1971,4.1954,4.1961,4.1952,4.1954,4.1937,4.1938,4.1879,4.1873,4.1932,4.1931,4.1931,0,4.1858,4.1851,4.187,4.1871,4.1877,4.1877,4.1879,4.19,4.1901,4.191,4.1904,4.1905,4.1906,4.1902,4.1913,4.1914,4.1921,4.19,4.1921,4.1916,4.192,4.1921,4.192,4.1895,4.1895,4.1894,4.1894,0,4.1803,4.1814,4.1816,4.1823,4.1825,4.183,4.1837,4.1835,4.1859,4.1858,4.1858,4.1859,4.1861,4.1861,4.1865,4.187,4.1885,4.1887,4.1884,4.1878,4.1873,4.1876,4.194,4.1888,4.1889,4.1889,4.1889,4.189,4.176,4.1755,4.1769,4.1771,4.178,4.1786,4.1783,4.1796,4.1797,4.1802,4.1814,4.1812,4.1821,4.1827,4.1831,4.1829,4.1839,4.1833,4.1832,4.183,4.1827,4.1874,4.183,4.183,4.183,4.183,4.183,0,4.1706,4.1716,4.1719,4.1729,4.1731,4.1749,4.1758,4.1757,4.1756,4.1764,4.1767,4.1767,4.1767,4.178,4.1782,4.1778,4.1785,4.1777,4.1778,4.1779,4.1818,4.1821,4.1772,4.1772,4.1772,4.1772,4.1772,4.1772,4.1678,4.1672,4.1684,4.1682,4.1692,4.1692,4.1696,4.1702,4.1709,4.1709,4.171,4.172,4.173,4.1733,4.1734,4.1738,4.1738,4.1728,4.1734,4.177,4.1776,4.1781,4.1784,4.1727,4.1727,4.1694,4.1694,4.1694]}]]